This is the latest recevied weather packets stored in our database for station/object OE2WAO-15. If no packets are shown the sender has not sent any weather packets the latest 10 day(s).
| Time | Temp. | Humidity | Pressure | Rain* | Wind** | Luminosity | Snow |
|---|---|---|---|---|---|---|---|
| 1788020308 | 23.89° C | 99% | 1016.7 hPa | - | - | - | - |
| 1788019701 | 23.33° C | 99% | 1016.7 hPa | - | - | - | - |
| 1788019093 | 23.33° C | 99% | 1016.9 hPa | - | - | - | - |
| 1788018486 | 23.89° C | 99% | 1016.8 hPa | - | - | - | - |
| 1788017878 | 23.89° C | 99% | 1016.8 hPa | - | - | - | - |
| 1788017271 | 23.89° C | 99% | 1016.8 hPa | - | - | - | - |
| 1788016663 | 23.89° C | 99% | 1016.8 hPa | - | - | - | - |
| 1788016055 | 23.89° C | 99% | 1016.7 hPa | - | - | - | - |
| 1788015445 | 24.44° C | 99% | 1016.7 hPa | - | - | - | - |
| 1788014837 | 25° C | 95% | 1016.8 hPa | - | - | - | - |
| 1788014230 | 25° C | 91% | 1016.9 hPa | - | - | - | - |
| 1788013622 | 24.44° C | 92% | 1016.9 hPa | - | - | - | - |
| 1788013015 | 25° C | 95% | 1016.9 hPa | - | - | - | - |
| 1788012407 | 24.44° C | 98% | 1017 hPa | - | - | - | - |
| 1788011799 | 23.89° C | 99% | 1017.2 hPa | - | - | - | - |
| 1788011192 | 23.89° C | 99% | 1017.3 hPa | - | - | - | - |
| 1788010584 | 25° C | 99% | 1017.4 hPa | - | - | - | - |
| 1788009976 | 25° C | 94% | 1017.5 hPa | - | - | - | - |
| 1788009370 | 24.44° C | 99% | 1017.6 hPa | - | - | - | - |
| 1788008760 | 25.56° C | 98% | 1017.7 hPa | - | - | - | - |
| 1788008153 | 25.56° C | 99% | 1017.8 hPa | - | - | - | - |
| 1788007555 | 25.56° C | 99% | 1017.8 hPa | - | - | - | - |
| 1788006938 | 25° C | 92% | 1017.8 hPa | - | - | - | - |
| 1788006330 | 25.56° C | 98% | 1017.9 hPa | - | - | - | - |
| 1788005722 | 25.56° C | 88% | 1017.9 hPa | - | - | - | - |
* Rain since midnight (hover to see other rain measurements)
** Current wind speed in m/s (hover to see current wind gust speed)